Location: Centerville
(32.8776°N, 96.6203°W)
Time: 11:39:45
(UTC+00:00)

Spot 4 Rocket - Pass Details

Date: 17 June 2021
Orbit: 776 x 781 km, 98.7° (Epoch: 31 July)

Event Time Altitude Azimuth Distance (km) Brightness Sun altitude
Rises 10:16:13 0° 7° (N) 3,260 8.0 -11.7°
Reaches altitude 10° 10:18:34 10° 4° (N) 2,329 7.1 -11.3°
Maximum altitude 10:23:35 57° 286° (WNW) 912 4.2 -10.4°
Drops below altitude 10° 10:28:34 10° 209° (SSW) 2,318 5.9 -9.6°
Enters shadow 10:28:48 - 208° (SSW) 2,406 6.0 -9.6°
